Tracking 26258 objects as of 3-Oct-2022
HD Live streaming from Space Station
objects crossing your sky now

STARLINK-4541

Track STARLINK-4541 now!
10-day predictions
STARLINK-4541 is classified as:


NORAD ID: 53427
Int'l Code: 2022-097AR
Perigee: 433.5 km
Apogee: 435.6 km
Inclination: 53.2 °
Period: 93.1 minutes
Semi major axis: 6805 km
RCS: Unknown
Launch date: August 10, 2022
Source: United States (US)
Launch site: AIR FORCE EASTERN TEST RANGE (AFETR)
aabbcc
Your satellite tracking list
Your tracking list is empty




NASA's NSSDC Master Catalog

Two Line Element Set (TLE):
1 53427U 22097AR  22275.91667824 -.01058208  00000-0 -23255-1 0  9996
2 53427  53.2175 344.5196 0001562  47.1562 176.0802 15.46342817  1306
Source of the keplerian elements: AFSPC